Location: Most
(50.5133°N, 13.6207°E)
Time: 10:37:20
(UTC+01:00)

Oscar 11 - Pass Details

Date: 06 December 2022
Orbit: 611 x 621 km, 97.6° (Epoch: 28 January)

Event Time Altitude Azimuth Distance (km) Brightness Sun altitude
Rises 04:52:47 0° 14° (NNE) 2,890 10.6 -27.1°
Reaches altitude 10° 04:54:59 10° 15° (NNE) 1,980 9.8 -26.8°
Enters shadow 04:56:44 24° 17° (NNE) 1,277 8.7 -26.5°
